Location: Bakov nad Jizerou
(50.4784°N, 14.9394°E)
Time: 04:19:13
(UTC+00:00)

Cosmos 1727 Rocket - Pass Details

Date: 24 October 2021
Orbit: 960 x 997 km, 82.9° (Epoch: 07 December)

Event Time Altitude Azimuth Distance (km) Brightness Sun altitude
Rises 16:25:44 0° 348° (NNW) 3,678 7.0 -6.3°
Reaches altitude 10° 16:28:16 10° 346° (NNW) 2,722 6.4 -6.7°
Maximum altitude 16:34:26 67° 265° (W) 1,043 4.5 -7.7°
Drops below altitude 10° 16:40:31 10° 185° (S) 2,690 6.5 -8.6°
Sets 16:43:00 0° 182° (S) 3,631 7.1 -9.0°
